[TLELIST] Archives

 

[TLELIST] Current TLEs

February 12th 2023 PDT

HST 1 20580U 90037B 23043.31645253 .00007935 00000-0 44056-3 0 9991 2 20580 28.4714 18.1224 0002547 111.9690 32.1170 15.11931254602808 ISS (ZARYA) 1 25544U 98067A 23043.43167310 .00030675 00000-0 54419-3 0 9994 2 25544 51.6409 226.4659 0009094 341.9279 105.6520 15.49919423382445 CXO 1 25867U 99040B 23043.68476341 .00000847 00000-0 00000+0 0 9999 2 25867 39.2943 212.0057 9007688 250.2991 0.5786 0.37815769 23864 ...Continue Reading

[TLELIST] Current TLEs

February 11th 2023 PDT

HST 1 20580U 90037B 23042.23779831 .00008034 00000-0 44636-3 0 9996 2 20580 28.4714 25.2843 0002505 102.0713 279.3217 15.11914401602638 ISS (ZARYA) 1 25544U 98067A 23042.39672367 .00021290 00000-0 38166-3 0 9995 2 25544 51.6426 231.5923 0008621 338.8987 90.2622 15.49844576382281 CXO 1 25867U 99040B 23043.68476341 .00000847 00000-0 00000+0 0 9999 2 25867 39.2943 212.0057 9007688 250.2991 0.5786 0.37815769 23864 ...Continue Reading

[TLELIST] Current TLEs

February 10th 2023 PDT

HST 1 20580U 90037B 23041.05447792 .00007518 00000-0 41724-3 0 9994 2 20580 28.4712 33.1411 0002522 90.0297 317.9254 15.11896613602451 ISS (ZARYA) 1 25544U 98067A 23041.04956278 .00020007 00000-0 36003-3 0 9995 2 25544 51.6423 238.2657 0008388 332.3085 135.6185 15.49782020382074 CXO 1 25867U 99040B 23043.68476341 .00000847 00000-0 00000+0 0 9999 2 25867 39.2943 212.0057 9007688 250.2991 0.5786 0.37815769 23864 ...Continue Reading

[TLELIST] Current TLEs

February 9th 2023 PDT

HST 1 20580U 90037B 23039.42244271 .00005968 00000-0 32934-3 0 9999 2 20580 28.4708 43.9774 0002523 73.7612 73.7341 15.11872303601944 ISS (ZARYA) 1 25544U 98067A 23040.39562529 .00020695 00000-0 37246-3 0 9997 2 25544 51.6423 241.5065 0008219 331.4824 85.6013 15.49755163381978 CXO 1 25867U 99040B 23041.04202884 .00000845 00000-0 00000+0 0 9994 2 25867 39.3453 212.3007 9009730 250.0804 0.7688 0.37815053 23858 ...Continue Reading

[TLELIST] Current TLEs

February 8th 2023 PDT

HST 1 20580U 90037B 23038.43187378 .00005411 00000-0 29773-3 0 9993 2 20580 28.4707 50.5543 0002495 63.8137 81.5835 15.11860339601795 ISS (ZARYA) 1 25544U 98067A 23039.35126157 .00018513 00000-0 33470-3 0 9995 2 25544 51.6435 246.6776 0008099 327.1964 19.4926 15.49708715381800 CXO 1 25867U 99040B 23041.04202884 .00000845 00000-0 00000+0 0 9994 2 25867 39.3453 212.3007 9009730 250.0804 0.7688 0.37815053 23858 ...Continue Reading

[TLELIST] Current TLEs

February 7th 2023 PDT

HST 1 20580U 90037B 23038.29233021 .00005383 00000-0 29619-3 0 9991 2 20580 28.4707 51.4807 0002487 62.5162 41.8797 15.11858954602037 ISS (ZARYA) 1 25544U 98067A 23038.32129630 .00014376 00000-0 26225-3 0 9993 2 25544 51.6429 251.7773 0008243 323.0854 33.7469 15.49662718381646 CXO 1 25867U 99040B 23038.39694112 .00000797 00000-0 00000-0 0 9994 2 25867 39.4114 212.6580 9010907 249.7971 0.6966 0.37814403 12685 ...Continue Reading

[TLELIST] Current TLEs

February 6th 2023 PDT

HST 1 20580U 90037B 23036.78504539 .00004062 00000-0 22102-3 0 9991 2 20580 28.4707 61.4878 0002423 46.7107 117.7487 15.11843141601545 ISS (ZARYA) 1 25544U 98067A 23037.56104797 .00011849 00000-0 21785-3 0 9993 2 25544 51.6425 255.5420 0008258 320.3825 112.4143 15.49636939381535 CXO 1 25867U 99040B 23038.39694112 .00000797 00000-0 00000-0 0 9994 2 25867 39.4114 212.6580 9010907 249.7971 0.6966 0.37814403 12685 ...Continue Reading

[TLELIST] Current TLEs

February 5th 2023 PDT

HST 1 20580U 90037B 23035.79603829 .00004019 00000-0 21860-3 0 9995 2 20580 28.4707 68.0537 0002377 36.4661 134.5110 15.11835701601395 ISS (ZARYA) 1 25544U 98067A 23036.46311102 .00012560 00000-0 23061-3 0 9991 2 25544 51.6427 260.9798 0008239 316.0995 107.6552 15.49611742381360 CXO 1 25867U 99040B 23038.39694112 .00000797 00000-0 00000-0 0 9994 2 25867 39.4114 212.6580 9010907 249.7971 0.6966 0.37814403 12685 ...Continue Reading

[TLELIST] Current TLEs

February 4th 2023 PDT

HST 1 20580U 90037B 23034.53824074 .00003846 00000-0 20885-3 0 9996 2 20580 28.4709 76.4038 0002291 23.4999 128.2028 15.11825928601209 ISS (ZARYA) 1 25544U 98067A 23035.12172678 .00032925 00000-0 58999-3 0 9991 2 25544 51.6441 267.6153 0008917 312.2336 183.6248 15.49599057381152 CXO 1 25867U 99040B 23035.75817493 .00000688 00000-0 00000+0 0 9998 2 25867 39.4688 212.9861 9010551 249.5332 1.5061 0.37810143 23832 ...Continue Reading

[TLELIST] Current TLEs

February 3rd 2023 PDT

HST 1 20580U 90037B 23034.32907685 .00003823 00000-0 20750-3 0 9999 2 20580 28.4709 77.7923 0002273 21.3081 69.7440 15.11824289601436 ISS (ZARYA) 1 25544U 98067A 23034.21948524 .00011361 00000-0 20404-3 0 9992 2 25544 51.6420 272.0853 0004811 309.2927 189.4695 15.50372651381013 CXO 1 25867U 99040B 23035.75817493 .00000688 00000-0 00000+0 0 9998 2 25867 39.4688 212.9861 9010551 249.5332 1.5061 0.37810143 23832 ...Continue Reading
  • This mailing list is a public mailing list - anyone may join or leave, at any time.
  • This mailing list is announce-only.

International Space Station (ISS) / Hubble Space Telescope (HST) / Chandra X-Ray Observatory Orbital Data via EMAIL

Privacy Policy:

Private list